This demonstration page uses our WeatherBlox Daily Observations layout. Learn more.

Left ArrowRight Arrow

36.17497, -115.13722

Hourly Observations for December 28, 2019

Temp ( °F °C ) Dew Point ( °F °C ) Humidity (%) Winds ( mph kmh ) Pressure ( in mb ) Visibility ( mi km ) Precip ( " mm )
12:58 am 00:58 Clear 38 3.1 27 -2.6 67 67 E 6 9 29.99 1016 10 16 0.00 0.00
1:58 am 01:58 Clear 37 2.9 26 -3.2 65 65 SE 5 7 30.01 1016 10 16 0.00 0.00
2:58 am 02:58 Clear 35 1.8 25 -3.7 67 67 NW 3 6 30.02 1017 10 16 0.00 0.00
3:58 am 03:58 Clear 37 2.6 24 -4.4 60 60 SSW 5 7 30.04 1017 10 16 0.00 0.00
4:58 am 04:58 Clear 40 4.2 19 -7 44 44 N 6 9 30.06 1018 10 16 0.00 0.00
5:58 am 05:58 Clear 39 4 19 -7.5 43 43 NE 8 13 30.09 1019 10 16 0.00 0.00
6:58 am 06:58 Sunny 40 4.4 18 -7.7 41 41 NW 8 13 30.09 1019 10 16 0.00 0.00
7:58 am 07:58 Sunny 42 5.7 16 -9 34 34 WNW 7 11 30.11 1020 10 16 0.00 0.00
8:30 am 08:30 Sunny 43 6 18 -8 36 36 WNW 16 26 30.14 1021 10 16 0.00 0.00
8:58 am 08:58 Sunny 44 6.6 17 -8.5 33 33 N 8 13 30.14 1021 10 16 0.00 0.00
9:45 am 09:45 Sunny 46 8 16 -9 29 29 W 16 26 30.13 1020 10 16 0.00 0.00
9:58 am 09:58 Sunny 46 7.7 17 -8.4 31 31 W 17 28 30.13 1020 10 16 0.00 0.00
10:58 am 10:58 Sunny 48 9 15 -9.5 26 26 NNW 15 24 30.12 1020 10 16 0.00 0.00
11:25 am 11:25 Sunny 48 9 14 -10 25 25 N 14 22 30.10 1019 10 16 0.00 0.00
11:58 am 11:58 Sunny 49 9.5 14 -10.1 24 24 NW 15 24 30.10 1019 10 16 0.00 0.00
12:15 pm 12:15 Sunny 50 10 14 -10 24 24 WNW 14 22 30.09 1019 10 16 0.00 0.00
12:58 pm 12:58 Sunny 49 9.6 15 -9.5 25 25 NNW 14 22 30.08 1019 10 16 0.00 0.00
1:28 pm 13:28 Sunny 50 10 14 -10 24 24 NW 15 24 30.08 1019 10 16 0.00 0.00
1:56 pm 13:56 Sunny 50 10 16 -9 25 25 WNW 13 20 30.08 1019 10 16 0.00 0.00
1:58 pm 13:58 Sunny 50 9.9 15 -9.2 25 25 WNW 12 19 30.08 1019 10 16 0.00 0.00
2:58 pm 14:58 Sunny 49 9.6 14 -10 24 24 N 17 28 30.08 1019 10 16 0.00 0.00
3:58 pm 15:58 Sunny 48 9.1 15 -9.4 26 26 NNW 9 15 30.10 1019 10 16 0.00 0.00
4:58 pm 16:58 Clear 46 8 17 -8.5 30 30 NNW 10 17 30.11 1020 10 16 0.00 0.00
6:58 pm 18:58 Clear 46 7.5 17 -8.6 31 31 NNW 6 9 30.14 1021 10 16 0.00 0.00
7:58 pm 19:58 Clear 38 3.3 22 -5.4 53 53 NE 6 9 30.16 1021 10 16 0.00 0.00
8:58 pm 20:58 Clear 37 2.5 23 -5.2 57 57 NE 9 15 30.18 1022 10 16 0.00 0.00
9:58 pm 21:58 Clear 38 3.5 21 -6 50 50 ENE 8 13 30.18 1022 10 16 0.00 0.00
10:58 pm 22:58 Clear 37 2.6 22 -5.3 56 56 NNE 12 19 30.19 1022 10 16 0.00 0.00
11:58 pm 23:58 Clear 40 4.3 20 -6.9 44 44 N 8 13 30.20 1023 10 16 0.00 0.00

Powered by AerisWeather